Location: Asheville, NC
(35.6000°N, 82.5500°W)
Time: 02:23:36

N. Korean satellite - Pass Details

Date: 11 March 2018
Orbit: 460 x 512 km, 97.2° (Epoch: 16 March)

Event Time Altitude Azimuth Distance (km) Brightness Sun altitude
Rises 20:24:51 0° 209° (SSW) 2,510 10.5 -11.1°
Reaches altitude 10° 20:27:50 10° 238° (WSW) 1,651 10.1 -11.7°
Maximum altitude 20:29:33 13° 267° (W) 1,480 10.4 -12.0°
Drops below altitude 10° 20:31:18 10° 296° (WNW) 1,672 10.5 -12.4°
Sets 20:34:22 0° 325° (NW) 2,573 10.9 -13.0°
